User: anonymous   Login
Location: Libas
(9.8833°N, 125.9833°E)
Time: 01:20:40
(UTC+00:00)
Language:

Meteor 2-5 Rocket - Orbit

View from above orbital plane
View from above orbital plane
View from above satellite
View from above satellite

Ground track
Ground track

The orbit data is extracted from the following two-line orbital elements,

1 11608U 79095B   21021.70462940  .00000014  00000-0  90834-6 0  9999
2 11608  81.2132  15.3261 0055493  69.9147 290.7981 14.06165774114817
Epoch (UTC): 21 January 2021 16:54:39
Eccentricity: 0.0055493
inclination: 81.2132°
perigee height: 832 km
apogee height: 913 km
right ascension of ascending node: 15.3261°
argument of perigee: 69.9147°
revolutions per day: 14.06165774
mean anomaly at epoch: 290.7981°
orbit number at epoch: 11481

The dashed part of the orbit path shows where the satellite is in the earth's shadow,  

DLR